Year,Month,Day,Hour,Minute,Value (Times are PST for temperature in C)
2021,03,29,08,19,5.10
2021,03,29,08,20,5.00
2021,03,29,08,21,5.00
2021,03,29,08,22,5.00
2021,03,29,08,23,5.00
2021,03,29,08,24,5.10
2021,03,29,08,25,5.10
2021,03,29,08,26,5.10
2021,03,29,08,27,5.10
2021,03,29,08,28,5.10
2021,03,29,08,29,5.10
2021,03,29,08,30,5.10
2021,03,29,08,31,5.10
2021,03,29,08,32,5.10
2021,03,29,08,33,5.10
2021,03,29,08,34,5.10
2021,03,29,08,35,5.10
2021,03,29,08,36,5.20
2021,03,29,08,37,5.20
2021,03,29,08,38,5.20
2021,03,29,08,39,5.20
2021,03,29,08,40,5.20
2021,03,29,08,41,5.20
2021,03,29,08,42,5.30
2021,03,29,08,43,5.30
2021,03,29,08,44,5.30
2021,03,29,08,45,5.40
2021,03,29,08,46,5.50
2021,03,29,08,47,5.50
2021,03,29,08,48,5.60
2021,03,29,08,49,5.60
2021,03,29,08,50,5.60
2021,03,29,08,51,5.60
2021,03,29,08,52,5.60
2021,03,29,08,53,5.60
2021,03,29,08,54,5.60
2021,03,29,08,55,5.60
2021,03,29,08,56,5.60
2021,03,29,08,57,5.60
2021,03,29,08,58,5.70
2021,03,29,08,59,5.70
2021,03,29,09,00,5.60
2021,03,29,09,01,5.60
2021,03,29,09,02,5.60
2021,03,29,09,03,5.70
2021,03,29,09,04,5.70
2021,03,29,09,05,5.70
2021,03,29,09,06,5.70
2021,03,29,09,07,5.80
2021,03,29,09,08,5.80
2021,03,29,09,09,5.80
2021,03,29,09,10,5.90
2021,03,29,09,11,5.90
2021,03,29,09,12,6.00
2021,03,29,09,13,6.00
2021,03,29,09,14,6.10
2021,03,29,09,15,6.20
2021,03,29,09,16,6.20
2021,03,29,09,17,6.20
2021,03,29,09,18,6.20
2021,03,29,09,19,6.20
2021,03,29,09,20,6.30
2021,03,29,09,21,6.30
2021,03,29,09,22,6.40
2021,03,29,09,23,6.40
2021,03,29,09,24,6.50
2021,03,29,09,25,6.50
2021,03,29,09,26,6.60
2021,03,29,09,27,6.70
2021,03,29,09,28,6.70
2021,03,29,09,29,6.80
2021,03,29,09,30,6.80
2021,03,29,09,31,6.80
2021,03,29,09,32,6.90
2021,03,29,09,33,6.90
2021,03,29,09,34,6.90
2021,03,29,09,35,6.90
2021,03,29,09,36,6.80
2021,03,29,09,37,6.80
2021,03,29,09,38,6.80
2021,03,29,09,39,6.80
2021,03,29,09,40,6.80
2021,03,29,09,41,6.80
2021,03,29,09,42,6.80
2021,03,29,09,43,6.90
2021,03,29,09,44,7.00
2021,03,29,09,45,7.10
2021,03,29,09,46,7.10
2021,03,29,09,47,7.10
2021,03,29,09,48,7.10
2021,03,29,09,49,7.10
2021,03,29,09,50,7.10
2021,03,29,09,51,7.10
2021,03,29,09,52,7.10
2021,03,29,09,53,7.10
2021,03,29,09,54,7.10
2021,03,29,09,55,7.20
2021,03,29,09,56,7.20
2021,03,29,09,57,7.30
2021,03,29,09,58,7.40
2021,03,29,09,59,7.40
2021,03,29,10,00,7.40
2021,03,29,10,01,7.40
2021,03,29,10,02,7.30
2021,03,29,10,03,7.20
2021,03,29,10,04,7.20
2021,03,29,10,05,7.20
2021,03,29,10,06,7.20
2021,03,29,10,07,7.20
2021,03,29,10,08,7.10
2021,03,29,10,09,7.10
2021,03,29,10,10,7.10
2021,03,29,10,11,7.10
2021,03,29,10,12,7.10
2021,03,29,10,13,7.10
2021,03,29,10,14,7.10
2021,03,29,10,15,7.20
2021,03,29,10,16,7.20
2021,03,29,10,17,7.20
2021,03,29,10,18,7.20
2021,03,29,10,19,7.20
2021,03,29,10,20,7.10
2021,03,29,10,21,7.10
2021,03,29,10,22,7.10
2021,03,29,10,23,7.10
2021,03,29,10,24,7.20
2021,03,29,10,25,7.20
2021,03,29,10,26,7.30
2021,03,29,10,27,7.30
2021,03,29,10,28,7.40
2021,03,29,10,29,7.50
2021,03,29,10,30,7.60
2021,03,29,10,31,7.60
2021,03,29,10,32,7.60
2021,03,29,10,33,7.60
2021,03,29,10,34,7.60
2021,03,29,10,35,7.70
2021,03,29,10,36,7.70
2021,03,29,10,37,7.70
2021,03,29,10,38,7.70
2021,03,29,10,39,7.70
2021,03,29,10,40,7.60
2021,03,29,10,41,7.60
2021,03,29,10,42,7.60
2021,03,29,10,43,7.60
2021,03,29,10,44,7.50
2021,03,29,10,45,7.50
2021,03,29,10,46,7.50
2021,03,29,10,47,7.50
2021,03,29,10,48,7.60
2021,03,29,10,49,7.60
2021,03,29,10,50,7.60
2021,03,29,10,51,7.60
2021,03,29,10,52,7.60
2021,03,29,10,53,7.50
2021,03,29,10,54,7.50
2021,03,29,10,55,7.60
2021,03,29,10,56,7.70
2021,03,29,10,57,7.70
2021,03,29,10,58,7.80
2021,03,29,10,59,7.90
2021,03,29,11,00,7.80
2021,03,29,11,01,7.80
2021,03,29,11,02,7.70
2021,03,29,11,03,7.70
2021,03,29,11,04,7.70
2021,03,29,11,05,7.70
2021,03,29,11,06,7.70
2021,03,29,11,07,7.70
2021,03,29,11,08,7.80
2021,03,29,11,09,7.90
2021,03,29,11,10,7.90
2021,03,29,11,11,8.00
2021,03,29,11,12,8.10
2021,03,29,11,13,8.00
2021,03,29,11,14,7.90
2021,03,29,11,15,7.80
2021,03,29,11,16,7.80
2021,03,29,11,17,7.80
2021,03,29,11,18,7.80
2021,03,29,11,19,7.80
2021,03,29,11,20,7.90
2021,03,29,11,21,8.00
2021,03,29,11,22,8.10
2021,03,29,11,23,8.20
2021,03,29,11,24,8.20
2021,03,29,11,25,8.10
2021,03,29,11,26,8.00
2021,03,29,11,27,7.90
2021,03,29,11,28,7.90
2021,03,29,11,29,7.90
2021,03,29,11,30,7.90
2021,03,29,11,31,7.80
2021,03,29,11,32,7.80
2021,03,29,11,33,7.90
2021,03,29,11,34,8.00
2021,03,29,11,35,8.10
2021,03,29,11,36,8.10
2021,03,29,11,37,8.00
2021,03,29,11,38,8.00
2021,03,29,11,39,8.00
2021,03,29,11,40,7.90
2021,03,29,11,41,8.00
2021,03,29,11,42,8.00
2021,03,29,11,43,8.00
2021,03,29,11,44,8.00
2021,03,29,11,45,8.10
2021,03,29,11,46,8.10
2021,03,29,11,47,8.20
2021,03,29,11,48,8.20
2021,03,29,11,49,8.20
2021,03,29,11,50,8.20
2021,03,29,11,51,8.20
2021,03,29,11,52,8.20
2021,03,29,11,53,8.30
2021,03,29,11,54,8.30
2021,03,29,11,55,8.30
2021,03,29,11,56,8.40
2021,03,29,11,57,8.40
2021,03,29,11,58,8.50
2021,03,29,11,59,8.60
2021,03,29,12,00,8.50
2021,03,29,12,01,8.50
2021,03,29,12,02,8.40
2021,03,29,12,03,8.40
2021,03,29,12,04,8.30
2021,03,29,12,05,8.30
2021,03,29,12,06,8.30
2021,03,29,12,07,8.40
2021,03,29,12,08,8.50
2021,03,29,12,09,8.60
2021,03,29,12,10,8.70
2021,03,29,12,11,8.80
2021,03,29,12,12,8.90
2021,03,29,12,13,9.00
2021,03,29,12,14,9.00
2021,03,29,12,15,8.90
2021,03,29,12,16,8.90
2021,03,29,12,17,8.80
2021,03,29,12,18,8.80
2021,03,29,12,19,8.80
2021,03,29,12,20,8.80
2021,03,29,12,21,8.80
2021,03,29,12,22,8.90
2021,03,29,12,23,8.80
2021,03,29,12,24,8.80
2021,03,29,12,25,8.80
2021,03,29,12,26,8.80
2021,03,29,12,27,8.80
2021,03,29,12,28,8.70
2021,03,29,12,29,8.70
2021,03,29,12,30,8.70
2021,03,29,12,31,8.70
2021,03,29,12,32,8.70
2021,03,29,12,33,8.70
2021,03,29,12,34,8.80
2021,03,29,12,35,8.90
2021,03,29,12,36,8.80
2021,03,29,12,37,8.80
2021,03,29,12,38,8.80
2021,03,29,12,39,8.80
2021,03,29,12,40,8.80
2021,03,29,12,41,8.80
2021,03,29,12,42,8.80
2021,03,29,12,43,8.90
2021,03,29,12,44,8.90
2021,03,29,12,45,8.90
2021,03,29,12,46,8.90
2021,03,29,12,47,8.90
2021,03,29,12,48,8.80
2021,03,29,12,49,8.80
2021,03,29,12,50,8.80
2021,03,29,12,51,8.90
2021,03,29,12,52,8.90
2021,03,29,12,53,8.90
2021,03,29,12,54,9.00
2021,03,29,12,55,9.00
2021,03,29,12,56,9.00
2021,03,29,12,57,9.10
2021,03,29,12,58,9.10
2021,03,29,12,59,9.10
2021,03,29,13,00,9.00
2021,03,29,13,01,9.10
2021,03,29,13,02,9.10
2021,03,29,13,03,9.10
2021,03,29,13,04,9.20
2021,03,29,13,05,9.30
2021,03,29,13,06,9.30
2021,03,29,13,07,9.40
2021,03,29,13,08,9.40
2021,03,29,13,09,9.40
2021,03,29,13,10,9.30
2021,03,29,13,11,9.20
2021,03,29,13,12,9.10
2021,03,29,13,13,9.00
2021,03,29,13,14,8.90
2021,03,29,13,15,8.80
2021,03,29,13,16,8.90
2021,03,29,13,17,8.90
2021,03,29,13,18,8.90
2021,03,29,13,19,9.00
2021,03,29,13,20,9.10
2021,03,29,13,21,9.20
2021,03,29,13,22,9.30
2021,03,29,13,23,9.30
2021,03,29,13,24,9.40
2021,03,29,13,25,9.50
2021,03,29,13,26,9.50
2021,03,29,13,27,9.70
2021,03,29,13,28,9.70
2021,03,29,13,29,9.70
2021,03,29,13,30,9.50
2021,03,29,13,31,9.40
2021,03,29,13,32,9.30
2021,03,29,13,33,9.30
2021,03,29,13,34,9.40
2021,03,29,13,35,9.40
2021,03,29,13,36,9.40
2021,03,29,13,37,9.40
2021,03,29,13,38,9.40
2021,03,29,13,39,9.30
2021,03,29,13,40,9.20
2021,03,29,13,41,9.20
2021,03,29,13,42,9.10
2021,03,29,13,43,9.10
2021,03,29,13,44,9.20
2021,03,29,13,45,9.30
2021,03,29,13,46,9.40
2021,03,29,13,47,9.40
2021,03,29,13,48,9.40
2021,03,29,13,49,9.40
2021,03,29,13,50,9.30
2021,03,29,13,51,9.30
2021,03,29,13,52,9.40
2021,03,29,13,53,9.40
2021,03,29,13,54,9.30
2021,03,29,13,55,9.30
2021,03,29,13,56,9.20
2021,03,29,13,57,9.20
2021,03,29,13,58,9.20
2021,03,29,13,59,9.20
2021,03,29,14,00,9.30
2021,03,29,14,01,9.30
2021,03,29,14,02,9.30
2021,03,29,14,03,9.20
2021,03,29,14,04,9.20
2021,03,29,14,05,9.20
2021,03,29,14,06,9.20
2021,03,29,14,07,9.10
2021,03,29,14,08,9.10
2021,03,29,14,09,9.10
2021,03,29,14,10,9.10
2021,03,29,14,11,9.00
2021,03,29,14,12,9.00
2021,03,29,14,13,9.00
2021,03,29,14,14,9.10
2021,03,29,14,15,9.00
2021,03,29,14,16,9.00
2021,03,29,14,17,9.00
2021,03,29,14,18,9.00
2021,03,29,14,19,9.00
2021,03,29,14,20,9.00
2021,03,29,14,21,9.00
2021,03,29,14,22,9.00
2021,03,29,14,23,9.00
2021,03,29,14,24,9.00
2021,03,29,14,25,9.00
2021,03,29,14,26,9.10
2021,03,29,14,27,9.10
2021,03,29,14,28,9.20
2021,03,29,14,29,9.20
2021,03,29,14,30,9.20
2021,03,29,14,31,9.20
2021,03,29,14,32,9.20
2021,03,29,14,33,9.20
2021,03,29,14,34,9.10
2021,03,29,14,35,9.10
2021,03,29,14,36,9.00
2021,03,29,14,37,8.80
2021,03,29,14,38,8.70
2021,03,29,14,39,8.60
2021,03,29,14,40,8.50
2021,03,29,14,41,8.50
2021,03,29,14,42,8.40
2021,03,29,14,43,8.30
2021,03,29,14,44,8.30
2021,03,29,14,45,8.30
2021,03,29,14,46,8.20
2021,03,29,14,47,8.20
2021,03,29,14,48,8.20
2021,03,29,14,49,8.20
2021,03,29,14,50,8.20
2021,03,29,14,51,8.20
2021,03,29,14,52,8.20
2021,03,29,14,53,8.20
2021,03,29,14,54,8.20
2021,03,29,14,55,8.20
2021,03,29,14,56,8.20
2021,03,29,14,57,8.20
2021,03,29,14,58,8.20
2021,03,29,14,59,8.20
2021,03,29,15,00,8.20
2021,03,29,15,01,8.20
2021,03,29,15,02,8.20
2021,03,29,15,03,8.20
2021,03,29,15,04,8.20
2021,03,29,15,05,8.20
2021,03,29,15,06,8.20
2021,03,29,15,07,8.20
2021,03,29,15,08,8.20
2021,03,29,15,09,8.20
2021,03,29,15,10,8.20
2021,03,29,15,11,8.20
2021,03,29,15,12,8.20
2021,03,29,15,13,8.20
2021,03,29,15,14,8.20
2021,03,29,15,15,8.30
2021,03,29,15,16,8.30
2021,03,29,15,17,8.30
2021,03,29,15,18,8.30
2021,03,29,15,19,8.30
2021,03,29,15,20,8.30
2021,03,29,15,21,8.30
2021,03,29,15,22,8.30
2021,03,29,15,23,8.20
2021,03,29,15,24,8.20
2021,03,29,15,25,8.20
2021,03,29,15,26,8.20
2021,03,29,15,27,8.20
2021,03,29,15,28,8.20
2021,03,29,15,29,8.30
2021,03,29,15,30,8.30
2021,03,29,15,31,8.30
2021,03,29,15,32,8.40
2021,03,29,15,33,8.40
2021,03,29,15,34,8.50
2021,03,29,15,35,8.50
2021,03,29,15,36,8.60
2021,03,29,15,37,8.60
2021,03,29,15,38,8.60
2021,03,29,15,39,8.60
2021,03,29,15,40,8.60
2021,03,29,15,41,8.60
2021,03,29,15,42,8.60
2021,03,29,15,43,8.60
2021,03,29,15,44,8.60
2021,03,29,15,45,8.60
2021,03,29,15,46,8.50
2021,03,29,15,47,8.50
2021,03,29,15,48,8.50
2021,03,29,15,49,8.50
2021,03,29,15,50,8.50
2021,03,29,15,51,8.50
2021,03,29,15,52,8.50
2021,03,29,15,53,8.60
2021,03,29,15,54,8.60
2021,03,29,15,55,8.70
2021,03,29,15,56,8.80
2021,03,29,15,57,8.90
2021,03,29,15,58,8.90
2021,03,29,15,59,9.00
2021,03,29,16,00,9.00
2021,03,29,16,01,9.10
2021,03,29,16,02,9.20
2021,03,29,16,03,9.20
2021,03,29,16,04,9.20
2021,03,29,16,05,9.20
2021,03,29,16,06,9.20
2021,03,29,16,07,9.20
2021,03,29,16,08,9.20
2021,03,29,16,09,9.20
2021,03,29,16,10,9.20
2021,03,29,16,11,9.20
2021,03,29,16,12,9.20
2021,03,29,16,13,9.10
2021,03,29,16,14,9.10
2021,03,29,16,15,9.10
2021,03,29,16,16,9.10
2021,03,29,16,17,9.10
2021,03,29,16,18,9.10
2021,03,29,16,19,9.10
2021,03,29,16,20,9.10
2021,03,29,16,21,9.10
2021,03,29,16,22,9.10
2021,03,29,16,23,9.10
2021,03,29,16,24,9.10
2021,03,29,16,25,9.10
2021,03,29,16,26,9.10
2021,03,29,16,27,9.20
2021,03,29,16,28,9.30
2021,03,29,16,29,9.30
2021,03,29,16,30,9.30
2021,03,29,16,31,9.30
2021,03,29,16,32,9.30
2021,03,29,16,33,9.30
2021,03,29,16,34,9.30
2021,03,29,16,35,9.30
2021,03,29,16,36,9.30
2021,03,29,16,37,9.40
2021,03,29,16,38,9.40
2021,03,29,16,39,9.40
2021,03,29,16,40,9.40
2021,03,29,16,41,9.40
2021,03,29,16,42,9.40
2021,03,29,16,43,9.40
2021,03,29,16,44,9.40
2021,03,29,16,45,9.40
2021,03,29,16,46,9.40
2021,03,29,16,47,9.30
2021,03,29,16,48,9.30
2021,03,29,16,49,9.40
2021,03,29,16,50,9.40
2021,03,29,16,51,9.40
2021,03,29,16,52,9.40
2021,03,29,16,53,9.40
2021,03,29,16,54,9.40
2021,03,29,16,55,9.40
2021,03,29,16,56,9.40
2021,03,29,16,57,9.40
2021,03,29,16,58,9.30
2021,03,29,16,59,9.30
2021,03,29,17,00,9.30
2021,03,29,17,01,9.20
2021,03,29,17,02,9.20
2021,03,29,17,03,9.20
2021,03,29,17,04,9.20
2021,03,29,17,05,9.20
2021,03,29,17,06,9.30
2021,03,29,17,07,9.30
2021,03,29,17,08,9.30
2021,03,29,17,09,9.30
2021,03,29,17,10,9.30
2021,03,29,17,11,9.30
2021,03,29,17,12,9.30
2021,03,29,17,13,9.30
2021,03,29,17,14,9.30
2021,03,29,17,15,9.30
2021,03,29,17,16,9.30
2021,03,29,17,17,9.30
2021,03,29,17,18,9.30
2021,03,29,17,19,9.30
2021,03,29,17,20,9.30
2021,03,29,17,21,9.30
2021,03,29,17,22,9.30
2021,03,29,17,23,9.30
2021,03,29,17,24,9.30
2021,03,29,17,25,9.30
2021,03,29,17,26,9.30
2021,03,29,17,27,9.20
2021,03,29,17,28,9.20
2021,03,29,17,29,9.20
2021,03,29,17,30,9.20
2021,03,29,17,31,9.20
2021,03,29,17,32,9.20
2021,03,29,17,33,9.20
2021,03,29,17,34,9.20
2021,03,29,17,35,9.20
2021,03,29,17,36,9.20
2021,03,29,17,37,9.20
2021,03,29,17,38,9.30
2021,03,29,17,39,9.30
2021,03,29,17,40,9.30
2021,03,29,17,41,9.20
2021,03,29,17,42,9.20
2021,03,29,17,43,9.20
2021,03,29,17,44,9.20
2021,03,29,17,45,9.20
2021,03,29,17,46,9.20
2021,03,29,17,47,9.20
2021,03,29,17,48,9.20
2021,03,29,17,49,9.10
2021,03,29,17,50,9.10
2021,03,29,17,51,9.10
2021,03,29,17,52,9.10
2021,03,29,17,53,9.10
2021,03,29,17,54,9.10
2021,03,29,17,55,9.10
2021,03,29,17,56,9.10
2021,03,29,17,57,9.10
2021,03,29,17,58,9.10
2021,03,29,17,59,9.10
2021,03,29,18,00,9.20
2021,03,29,18,01,9.20
2021,03,29,18,02,9.20
2021,03,29,18,03,9.10
2021,03,29,18,04,9.10
2021,03,29,18,05,9.10
2021,03,29,18,06,9.00
2021,03,29,18,07,9.10
2021,03,29,18,08,9.00
2021,03,29,18,09,9.10
2021,03,29,18,10,9.00
2021,03,29,18,11,9.00
2021,03,29,18,12,9.00
2021,03,29,18,13,9.00
2021,03,29,18,14,9.00
2021,03,29,18,15,9.00
2021,03,29,18,16,9.00
2021,03,29,18,17,9.00
2021,03,29,18,18,9.00
2021,03,29,18,19,9.00
2021,03,29,18,20,9.00
2021,03,29,18,21,9.10
2021,03,29,18,22,9.10
2021,03,29,18,23,9.00
2021,03,29,18,24,9.00
2021,03,29,18,25,9.00
2021,03,29,18,26,9.00
2021,03,29,18,27,8.90
2021,03,29,18,28,8.90
2021,03,29,18,29,8.90
2021,03,29,18,30,8.90
2021,03,29,18,31,8.90
2021,03,29,18,32,8.80
2021,03,29,18,33,8.80
2021,03,29,18,34,8.80
2021,03,29,18,35,8.80
2021,03,29,18,36,8.80
2021,03,29,18,37,8.80
2021,03,29,18,38,8.80
2021,03,29,18,39,8.80
2021,03,29,18,40,8.80
2021,03,29,18,41,8.80
2021,03,29,18,42,8.80
2021,03,29,18,43,8.80
2021,03,29,18,44,8.80
2021,03,29,18,45,8.80
2021,03,29,18,46,8.80
2021,03,29,18,47,8.80
2021,03,29,18,48,8.80
2021,03,29,18,49,8.80
2021,03,29,18,50,8.80
2021,03,29,18,51,8.80
